When you browse on this site, cookies collect data to enhance your experience and personalize the content and advertising you see.
Visit our Privacy Policy to learn more. By continuing to use the site, you agree to this use of cookies and data.
  • In Italy
  • List of Countries
  • For 7 days
  • Water Temperature
  • Satellite Maps
  • Weather Map
  • Weather Widgets
  • user-avatar
    Login

    Hourly Weather Borety

    Today, 18 January, Friday

    Time Temperature Precipitation Wind Pressure Humidity
    00:00 0°C° 0.1 mm 4 mps 747 mmHg 85%
    01:00 +1°C° 0 mm 4 mps 747 mmHg 87%
    02:00 +1°C° 0.3 mm 4 mps 748 mmHg 87%
    03:00 0°C° 0.3 mm 5 mps 748 mmHg 87%
    04:00 0°C° 0.3 mm 5 mps 748 mmHg 88%
    05:00 -1°C° 0.4 mm 6 mps 749 mmHg 83%
    06:00 -2°C° 0.4 mm 6 mps 750 mmHg 78%
    07:00 -2°C° 0.4 mm 6 mps 751 mmHg 73%
    08:00 -2°C° 0 mm 6 mps 752 mmHg 72%
    09:00 -3°C° 0 mm 6 mps 753 mmHg 71%
    10:00 -3°C° 0 mm 6 mps 755 mmHg 69%
    11:00 -2°C° 0 mm 6 mps 755 mmHg 68%
    12:00 -2°C° 0 mm 6 mps 756 mmHg 66%
    13:00 -2°C° 0 mm 6 mps 757 mmHg 64%
    14:00 -1°C° 0 mm 5 mps 757 mmHg 65%
    15:00 -2°C° 0 mm 5 mps 758 mmHg 66%
    16:00 -2°C° 0 mm 4 mps 758 mmHg 68%
    17:00 -2°C° 0 mm 4 mps 759 mmHg 68%
    18:00 -2°C° 0 mm 4 mps 759 mmHg 67%
    19:00 -3°C° 0 mm 4 mps 760 mmHg 67%
    20:00 -3°C° 0 mm 4 mps 760 mmHg 70%
    21:00 -3°C° 0 mm 4 mps 760 mmHg 73%
    22:00 -4°C° 0 mm 5 mps 761 mmHg 76%
    23:00 -3°C° 0 mm 4 mps 761 mmHg 78%

    Tomorrow, 19 January, Saturday

    Time Temperature Precipitation Wind Pressure Humidity
    00:00 -3°C° 0 mm 4 mps 761 mmHg 80%
    01:00 -3°C° 0 mm 4 mps 761 mmHg 82%
    02:00 -3°C° 0 mm 4 mps 762 mmHg 82%
    03:00 -3°C° 0 mm 4 mps 762 mmHg 83%
    04:00 -3°C° 0 mm 4 mps 762 mmHg 83%
    05:00 -3°C° 0 mm 4 mps 762 mmHg 83%
    06:00 -3°C° 0 mm 4 mps 762 mmHg 82%
    07:00 -3°C° 0 mm 4 mps 762 mmHg 82%
    08:00 -2°C° 0 mm 4 mps 762 mmHg 79%
    09:00 -2°C° 0 mm 5 mps 763 mmHg 77%
    10:00 -1°C° 0 mm 5 mps 763 mmHg 74%
    11:00 -1°C° 0 mm 5 mps 763 mmHg 73%
    12:00 0°C° 0 mm 5 mps 763 mmHg 71%
    13:00 0°C° 0 mm 5 mps 763 mmHg 70%
    14:00 0°C° 0 mm 4 mps 762 mmHg 73%
    15:00 -1°C° 0 mm 4 mps 762 mmHg 76%
    16:00 -1°C° 0 mm 3 mps 762 mmHg 79%
    17:00 -1°C° 0 mm 3 mps 762 mmHg 80%
    18:00 -1°C° 0 mm 3 mps 762 mmHg 81%
    19:00 -2°C° 0 mm 3 mps 762 mmHg 83%
    20:00 -2°C° 0 mm 3 mps 762 mmHg 83%
    21:00 -2°C° 0 mm 3 mps 762 mmHg 83%
    22:00 -2°C° 0 mm 3 mps 763 mmHg 83%
    23:00 -2°C° 0 mm 3 mps 762 mmHg 83%

    Day after tomorrow, 20 January, Sunday

    Time Temperature Precipitation Wind Pressure Humidity
    00:00 -2°C° 0 mm 3 mps 762 mmHg 83%
    01:00 -2°C° 0 mm 3 mps 762 mmHg 83%
    02:00 -2°C° 0 mm 3 mps 762 mmHg 84%
    03:00 -4°C° 0 mm 3 mps 761 mmHg 84%
    04:00 -4°C° 0 mm 3 mps 761 mmHg 85%
    05:00 -4°C° 0 mm 3 mps 761 mmHg 86%
    06:00 -4°C° 0 mm 3 mps 761 mmHg 86%
    07:00 -4°C° 0 mm 3 mps 761 mmHg 87%
    08:00 -3°C° 0 mm 4 mps 761 mmHg 86%
    09:00 -3°C° 0 mm 4 mps 761 mmHg 84%
    10:00 -2°C° 0 mm 4 mps 761 mmHg 83%
    11:00 -1°C° 0.1 mm 4 mps 761 mmHg 82%
    12:00 -1°C° 0.1 mm 4 mps 761 mmHg 82%
    13:00 0°C° 0.1 mm 4 mps 761 mmHg 82%
    14:00 +1°C° 0.1 mm 3 mps 761 mmHg 81%
    15:00 0°C° 0.1 mm 3 mps 762 mmHg 80%
    16:00 0°C° 0.1 mm 3 mps 762 mmHg 79%
    17:00 -1°C° 0 mm 3 mps 762 mmHg 76%
    18:00 -1°C° 0 mm 3 mps 762 mmHg 72%
    19:00 -2°C° 0 mm 2 mps 763 mmHg 68%
    20:00 -2°C° 0 mm 2 mps 763 mmHg 67%
    21:00 -2°C° 0 mm 2 mps 764 mmHg 65%
    22:00 -2°C° 0 mm 2 mps 764 mmHg 64%
    23:00 -2°C° 0 mm 2 mps 764 mmHg 63%

    21 January, Monday

    Time Temperature Precipitation Wind Pressure Humidity
    00:00 -3°C° 0 mm 2 mps 765 mmHg 63%
    01:00 -3°C° 0 mm 2 mps 765 mmHg 62%
    02:00 -4°C° 0 mm 3 mps 765 mmHg 63%
    03:00 -4°C° 0 mm 3 mps 765 mmHg 63%
    04:00 -4°C° 0 mm 3 mps 765 mmHg 63%
    05:00 -4°C° 0 mm 3 mps 766 mmHg 64%
    06:00 -4°C° 0 mm 3 mps 766 mmHg 65%
    07:00 -5°C° 0 mm 3 mps 766 mmHg 66%
    08:00 -4°C° 0 mm 3 mps 766 mmHg 64%
    09:00 -4°C° 0 mm 3 mps 766 mmHg 63%
    10:00 -2°C° 0 mm 3 mps 766 mmHg 62%
    11:00 -2°C° 0 mm 3 mps 766 mmHg 61%
    12:00 -1°C° 0 mm 3 mps 766 mmHg 60%
    13:00 -1°C° 0 mm 3 mps 766 mmHg 59%
    14:00 -2°C° 0 mm 4 mps 766 mmHg 68%
    15:00 -2°C° 0 mm 4 mps 765 mmHg 77%
    16:00 -2°C° 0 mm 4 mps 765 mmHg 86%
    17:00 -2°C° 0 mm 4 mps 765 mmHg 83%
    18:00 -2°C° 0 mm 4 mps 764 mmHg 80%
    19:00 -3°C° 0 mm 4 mps 764 mmHg 76%
    20:00 -4°C° 0 mm 5 mps 764 mmHg 75%
    21:00 -4°C° 0 mm 5 mps 763 mmHg 74%
    22:00 -2°C° 0 mm 5 mps 763 mmHg 74%
    23:00 -2°C° 0 mm 5 mps 763 mmHg 73%

    22 January, Tuesday

    Time Temperature Precipitation Wind Pressure Humidity
    00:00 -2°C° 0 mm 5 mps 762 mmHg 72%
    01:00 -2°C° 0 mm 5 mps 762 mmHg 72%
    02:00 -2°C° 0.1 mm 5 mps 761 mmHg 72%
    03:00 -2°C° 0.1 mm 5 mps 761 mmHg 72%
    04:00 -4°C° 0.1 mm 5 mps 760 mmHg 72%
    05:00 -4°C° 0 mm 5 mps 760 mmHg 71%
    06:00 -4°C° 0 mm 5 mps 759 mmHg 71%
    07:00 -4°C° 0 mm 4 mps 759 mmHg 71%
    08:00 -4°C° 0 mm 5 mps 759 mmHg 69%
    09:00 -4°C° 0 mm 5 mps 758 mmHg 67%
    10:00 -4°C° 0 mm 5 mps 758 mmHg 66%
    11:00 -4°C° 0 mm 6 mps 757 mmHg 64%
    12:00 -3°C° 0 mm 6 mps 757 mmHg 62%
    13:00 -3°C° 0 mm 6 mps 756 mmHg 59%
    14:00 -3°C° 0 mm 6 mps 755 mmHg 62%
    15:00 -3°C° 0 mm 6 mps 754 mmHg 64%
    16:00 -4°C° 0 mm 5 mps 754 mmHg 67%
    17:00 -4°C° 0 mm 6 mps 753 mmHg 67%
    18:00 -4°C° 0 mm 6 mps 753 mmHg 67%
    19:00 -4°C° 0 mm 6 mps 752 mmHg 68%
    20:00 -4°C° 0 mm 6 mps 752 mmHg 70%
    21:00 -4°C° 0 mm 6 mps 751 mmHg 72%
    22:00 -4°C° 0 mm 6 mps 751 mmHg 74%
    23:00 -5°C° 0 mm 6 mps 751 mmHg 74%

    23 January, Wednesday

    Time Temperature Precipitation Wind Pressure Humidity
    00:00 -5°C° 0 mm 6 mps 751 mmHg 74%
    01:00 -5°C° 0 mm 6 mps 750 mmHg 74%
    02:00 -5°C° 0 mm 6 mps 750 mmHg 74%
    03:00 -5°C° 0 mm 6 mps 750 mmHg 74%
    04:00 -5°C° 0 mm 6 mps 749 mmHg 74%
    05:00 -6°C° 0 mm 5 mps 749 mmHg 75%
    06:00 -6°C° 0 mm 5 mps 749 mmHg 77%
    07:00 -6°C° 0 mm 5 mps 749 mmHg 78%
    08:00 -6°C° 0 mm 5 mps 749 mmHg 76%
    09:00 -6°C° 0 mm 5 mps 749 mmHg 75%
    10:00 -6°C° 0 mm 5 mps 749 mmHg 73%
    11:00 -5°C° 0 mm 5 mps 749 mmHg 74%
    12:00 -5°C° 0 mm 5 mps 749 mmHg 75%
    13:00 -4°C° 0 mm 5 mps 749 mmHg 75%
    14:00 -3°C° 0 mm 4 mps 749 mmHg 76%
    15:00 -3°C° 0 mm 4 mps 749 mmHg 76%
    16:00 -3°C° 0 mm 4 mps 749 mmHg 77%
    17:00 -4°C° 0 mm 4 mps 749 mmHg 78%
    18:00 -4°C° 0 mm 4 mps 749 mmHg 80%
    19:00 -5°C° 0 mm 4 mps 749 mmHg 82%
    20:00 -5°C° 0 mm 4 mps 749 mmHg 84%
    21:00 -5°C° 0 mm 3 mps 749 mmHg 86%
    22:00 -5°C° 0 mm 3 mps 749 mmHg 88%
    23:00 -4°C° 0 mm 3 mps 749 mmHg 88%
    Show more